This is the latest recevied weather packets stored in our database for station/object W0WC. If no packets are shown the sender has not sent any weather packets the latest 10 day(s).
| Time | Temp. | Humidity | Pressure | Rain* | Wind** | Luminosity | Snow |
|---|---|---|---|---|---|---|---|
| 1788692190 | 26.67° C | 65% | 1014.8 hPa | 0 mm | - | 0 W/m² | - |
| 1788691886 | 26.67° C | 65% | 1014.7 hPa | 0 mm | - | 0 W/m² | - |
| 1788691585 | 26.67° C | 66% | 1014.8 hPa | 0 mm | - | 0 W/m² | - |
| 1788691279 | 26.67° C | 66% | 1014.7 hPa | 0 mm | - | 0 W/m² | - |
| 1788690978 | 26.67° C | 66% | 1014.6 hPa | 0 mm | - | 0 W/m² | - |
| 1788690673 | 26.11° C | 66% | 1014.6 hPa | 0 mm | - | 0 W/m² | - |
| 1788690368 | 26.11° C | 68% | 1014.5 hPa | 0 mm | - | 0 W/m² | - |
| 1788690062 | 25.56° C | 69% | 1014.2 hPa | 0 mm | - | 0 W/m² | - |
| 1788689757 | 25° C | 71% | 1014.4 hPa | 0 mm | - | 0 W/m² | - |
| 1788689451 | 25° C | 71% | 1014.5 hPa | 0 mm | - | 0 W/m² | - |
| 1788689147 | 25.56° C | 70% | 1014.2 hPa | 0 mm | - | 0 W/m² | - |
| 1788688849 | 25° C | 71% | 1014.5 hPa | 0 mm | - | 0 W/m² | - |
| 1788688542 | 25° C | 71% | 1014.2 hPa | 0 mm | - | 0 W/m² | - |
| 1788688238 | 25° C | 71% | 1014.5 hPa | 0 mm | - | 0 W/m² | - |
| 1788687936 | 25.56° C | 70% | 1014.1 hPa | 0 mm | - | 0 W/m² | - |
| 1788687632 | 25.56° C | 70% | 1014.2 hPa | 0 mm | - | 0 W/m² | - |
| 1788687328 | 26.11° C | 69% | 1014.2 hPa | 0 mm | - | 0 W/m² | - |
| 1788687035 | 26.11° C | 69% | 1014.1 hPa | 0 mm | - | 0 W/m² | - |
| 1788686723 | 26.11° C | 69% | 1014.1 hPa | 0 mm | - | 0 W/m² | - |
| 1788686418 | 26.11° C | 68% | 1014 hPa | 0 mm | - | 0 W/m² | - |
| 1788686114 | 26.11° C | 68% | 1014.1 hPa | 0 mm | - | 0 W/m² | - |
| 1788685810 | 25.56° C | 69% | 1013.9 hPa | 0 mm | - | 0 W/m² | - |
| 1788685505 | 26.11° C | 69% | 1013.8 hPa | 0 mm | - | 0 W/m² | - |
| 1788685204 | 26.11° C | 69% | 1014.1 hPa | 0 mm | - | 0 W/m² | - |
| 1788684904 | 26.11° C | 68% | 1014 hPa | 0 mm | - | 0 W/m² | - |
* Rain latest hour (hover to see other rain measurements)
** Current wind speed in m/s (hover to see current wind gust speed)